Weather in Kenitra

Morocco     34°15′37″N   6°34′34″W
temp.,
°C
wind,
m/s
gust,
m/s
humid.,
%
clouds,
%
prec.,
mm/h
press.,
hPa
HPBL,
m
26 february, fri
fri2601:00+13se2397100 6.8 102487
04:00+12sse2296100 2.9 102381
07:00+13n1295100 4.3 102385
10:00+13wnw459288 0.6 1024169
13:00+17wsw226794 0.6 1023560
16:00+16wnw3373100 0.0 1021392
19:00+13nw2287100 0.3 102149
22:00+12wsw3391100 1.3 102266
27 february, sat
sat2701:00+12s1188100 1.6 102224
04:00+11s1187100 0.0 102123
07:00+10e1291100 0.0 102023
10:00+13ene3489100 0.0 1020249
13:00+17ene3571100 0.0 1019658
16:00+19ne5763100 0.0 10171028
19:00+14n4888100 2.1 1016244
22:00+12e129498 2.5 101823
28 february, sun
sun2801:00+11ese239196 2.6 101632
04:00+11se239381 0.1 101641
07:00+11e129090 0.2 101524
10:00+14ene3478100 0.0 1015190
13:00+18e4564100 0.0 1014851
16:00+20ene4560100 0.0 10121057
19:00+15n3483100 0.5 101288
22:00+13s61085100 0.6 1014229
1 march, mon
mon101:00+14ese3678100 1.4 1014131
04:00+11ne2391100 0.1 101336
07:00+10e239291 0.1 101335
10:00+14sse22782 0.0 1014199
13:00+18wnw11621 0.0 1015861
16:00+19nw33654 0.0 1014859
19:00+15nnw248520 0.0 1015129
22:00+12s01890 0.8 101823
2 march, tue
tue201:00+11ese11890 0.8 101923
04:00+11sse12890 0.0 101923
07:00+11se11890 0.0 102023
10:00+14e23810 0.0 1021206
13:00+20e57600 0.0 1022858
16:00+21ne45530 0.0 10201229
19:00+16n47810 0.0 1021186
22:00+13ene36910 0.0 1022111